Flag for China Weather past 2 weeks in Hohhot, Inner Mongolia, China

Now
10 °F

Passing clouds.


Feels Like: 1 °F
Forecast: -8 / 24 °F
Wind: 6 mph from North

Location: Hohhot Airport

Current Time: Jan 30, 2015 at 8:40:41 PM

Latest Report: Jan 30, 2015 at 8:00 PM


Visibility: N/A

Pressure: 30.51 "Hg

Humidity: 52%

Dew point: -4 °F

Location of HohhotLocation

Historic Weather in Hohhot — Graph

°F

Hohhot temperature yesterday

Maximum temperature yesterday: 21 °F (at 12:00 AM)
Minimum temperature yesterday: 9 °F (at 7:00 AM)
Average temperature yesterday: 15 °F

Past Weeks' High & Low Weather Summary

 TemperatureHumidityPressure
High37 °F (Jan 23, 2:00 PM)100% (Jan 17, 10:00 PM)30.54 "Hg (Jan 17, 10:00 PM)
Low-9 °F (Jan 30, 7:00 AM)22% (Jan 27, 12:00 PM)29.95 "Hg (Jan 23, 2:00 PM)
Average16 °F67%30.22 "Hg
* Reported Jan 15 7:00 PM — Jan 30 7:00 PM, Hohhot, Weather by CustomWeather, © 2014

Note: Actual official high and low records may vary slightly from our data, if they occured in-between our weather recording intervals... More about our weather records

Advertising

Hohhot weather history for previous 24 hours

 ConditionsComfort  
Time TempWeatherWind HumidityBarometerVisibility
7:00 PM
Jan 30
12 °FClear.10 mph52%30.48 "Hg10 mi
6:00 PM14 °FClear.13 mph52%30.45 "Hg10 mi
5:00 PM18 °FPassing clouds.6 mph45%30.45 "HgN/A
4:00 PM19 °FSunny.6 mph53%30.45 "Hg10 mi
3:00 PM19 °FSunny.8 mph53%30.45 "Hg10 mi
2:00 PM19 °FSunny.6 mph49%30.45 "Hg10 mi
1:00 PM18 °FSunny.6 mph58%30.45 "Hg10 mi
12:00 PM18 °FSunny.8 mph45%30.48 "Hg10 mi
11:00 AM12 °FSunny.1 mph62%30.51 "Hg10 mi
10:00 AM5 °FSunny.3 mph66%30.48 "Hg10 mi
9:00 AM1 °FSunny.3 mph71%30.48 "Hg10 mi
8:00 AM-6 °FSunny.6 mph77%30.45 "Hg10 mi
7:00 AM-9 °FClear.3 mph84%30.45 "Hg10 mi
6:00 AM-8 °FClear.1 mph84%30.42 "Hg10 mi
5:00 AM-4 °FClear.3 mph84%30.42 "Hg10 mi
4:00 AM-4 °FClear.1 mph84%30.42 "Hg10 mi
3:00 AM0 °FClear.3 mph71%30.42 "Hg10 mi
2:00 AM9 °FClear.8 mph56%30.39 "Hg10 mi
1:00 AM10 °FPassing clouds.10 mph52%30.39 "HgN/A
12:00 AM10 °FPassing clouds.6 mph61%30.42 "HgN/A
11:00 PM
Jan 29
10 °FClear.8 mph72%30.42 "Hg10 mi
10:00 PM9 °FClear.6 mph72%30.42 "Hg10 mi
9:00 PM12 °FClear.6 mph67%30.39 "Hg10 mi
8:00 PM14 °FPassing clouds.3 mph62%30.39 "HgN/A
Weather by CustomWeather, © 2014

See weather overviewHow to use our weather pages